SWA3412 KMYR-KDAL

Flight info

Callsign SWA3412
Flight time N/A
Altitude 36000
Route FLO KELLN JAGIR CRAMM SFOUR LITTR DIRRK HIBIL3
Aircraft B737/M-SADE2E3GIJ4RWZ/LB1D1

Departure

Time 2026-05-04 17:50
Airport Myrtle Beach International Airport (KMYR)

Arrival

Time N/A
Airport Dallas Love Field (KDAL)
Time Latitude Longitude Altitude Speed Heading
2026-05-04 17:29 33.68253 -78.92416 31 ft 0 kts 93°
2026-05-04 17:42 33.68253 -78.92419 31 ft 3 kts 93°
2026-05-04 17:42 33.68255 -78.92445 31 ft 3 kts 95°
2026-05-04 17:42 33.68262 -78.92475 31 ft 4 kts 131°
2026-05-04 17:42 33.68282 -78.92492 31 ft 3 kts 166°
2026-05-04 17:43 33.68290 -78.92494 29 ft 0 kts 167°
2026-05-04 17:45 33.68286 -78.92493 31 ft 2 kts 167°
2026-05-04 17:45 33.68262 -78.92504 29 ft 7 kts 206°
2026-05-04 17:45 33.68205 -78.92537 29 ft 11 kts 205°
2026-05-04 17:46 33.68176 -78.92620 31 ft 11 kts 264°
2026-05-04 17:46 33.68217 -78.92686 31 ft 12 kts 346°
2026-05-04 17:46 33.68308 -78.92709 30 ft 15 kts 348°
2026-05-04 17:46 33.68424 -78.92739 30 ft 19 kts 348°
2026-05-04 17:47 33.68555 -78.92771 30 ft 19 kts 349°
2026-05-04 17:47 33.68680 -78.92803 31 ft 18 kts 348°
2026-05-04 17:47 33.68803 -78.92832 31 ft 18 kts 348°
2026-05-04 17:47 33.68922 -78.92860 31 ft 17 kts 354°
2026-05-04 17:48 33.69037 -78.92850 31 ft 16 kts 351°
2026-05-04 17:48 33.69147 -78.92876 30 ft 16 kts 348°
2026-05-04 17:48 33.69245 -78.92901 31 ft 11 kts 347°
2026-05-04 17:48 33.69267 -78.92976 31 ft 11 kts 258°
2026-05-04 17:49 33.69251 -78.93062 31 ft 10 kts 259°
2026-05-04 17:49 33.69235 -78.93138 31 ft 7 kts 230°
2026-05-04 17:49 33.69182 -78.93133 33 ft 9 kts 167°
2026-05-04 17:49 33.68933 -78.93071 33 ft 75 kts 168°
2026-05-04 17:50 33.68186 -78.92884 30 ft 141 kts 168°
2026-05-04 17:50 33.67071 -78.92605 317 ft 169 kts 168°
2026-05-04 17:50 33.65956 -78.92325 1315 ft 160 kts 174°
2026-05-04 17:50 33.64829 -78.92613 1940 ft 181 kts 200°
2026-05-04 17:51 33.63544 -78.93213 2194 ft 211 kts 201°
2026-05-04 17:51 33.62125 -78.93947 2578 ft 229 kts 213°
2026-05-04 17:51 33.61094 -78.95417 3213 ft 234 kts 241°
2026-05-04 17:51 33.60732 -78.97289 3850 ft 240 kts 277°
2026-05-04 17:52 33.61399 -78.99112 4638 ft 243 kts 307°
2026-05-04 17:52 33.62575 -79.00589 5352 ft 251 kts 316°
2026-05-04 17:52 33.63935 -79.02041 6052 ft 268 kts 318°
2026-05-04 17:52 33.65363 -79.03520 7113 ft 273 kts 318°
2026-05-04 17:53 33.66812 -79.05017 8243 ft 276 kts 318°
2026-05-04 17:53 33.68282 -79.06549 9274 ft 281 kts 318°
2026-05-04 17:53 33.69768 -79.08109 10264 ft 286 kts 318°
2026-05-04 17:53 33.71311 -79.09739 10840 ft 308 kts 317°
2026-05-04 17:54 33.72997 -79.11527 11082 ft 337 kts 317°
2026-05-04 17:54 33.74799 -79.13444 11665 ft 352 kts 317°
2026-05-04 17:54 33.76640 -79.15406 12559 ft 355 kts 317°
2026-05-04 17:54 33.78491 -79.17382 13598 ft 355 kts 317°
2026-05-04 17:55 33.80321 -79.19337 14498 ft 358 kts 317°
2026-05-04 17:55 33.82220 -79.21369 15346 ft 363 kts 316°
2026-05-04 17:55 33.84091 -79.23376 16158 ft 367 kts 316°
2026-05-04 17:55 33.86009 -79.25433 16986 ft 370 kts 316°
2026-05-04 17:56 33.87935 -79.27502 17795 ft 373 kts 316°
2026-05-04 17:56 33.89885 -79.29597 18556 ft 376 kts 316°
2026-05-04 17:56 33.91854 -79.31714 19268 ft 380 kts 315°
2026-05-04 17:56 33.93816 -79.33824 19944 ft 384 kts 315°
2026-05-04 17:57 33.95817 -79.35978 20623 ft 387 kts 315°
2026-05-04 17:57 33.97838 -79.38154 21284 ft 390 kts 315°
2026-05-04 17:57 33.99879 -79.40353 21920 ft 393 kts 315°
2026-05-04 17:57 34.01904 -79.42537 22532 ft 396 kts 315°
2026-05-04 17:58 34.03964 -79.44760 23120 ft 399 kts 315°
2026-05-04 17:58 34.06040 -79.47002 23683 ft 402 kts 314°
2026-05-04 17:58 34.08132 -79.49262 24206 ft 406 kts 314°
2026-05-04 17:58 34.10248 -79.51551 24671 ft 410 kts 314°
2026-05-04 17:59 34.12385 -79.53863 25158 ft 413 kts 314°
2026-05-04 17:59 34.14525 -79.56180 25663 ft 415 kts 314°
2026-05-04 17:59 34.18862 -79.60880 26563 ft 421 kts 314°
2026-05-04 18:00 34.20940 -79.63372 26980 ft 420 kts 305°
2026-05-04 18:00 34.22518 -79.66323 27397 ft 418 kts 295°
2026-05-04 18:00 34.23677 -79.69538 27814 ft 418 kts 287°
2026-05-04 18:00 34.24333 -79.72954 28187 ft 419 kts 278°
2026-05-04 18:01 34.24766 -79.76394 28585 ft 420 kts 277°
2026-05-04 18:01 34.25186 -79.79947 28953 ft 422 kts 277°
2026-05-04 18:01 34.25597 -79.83458 29422 ft 421 kts 277°
2026-05-04 18:02 34.26428 -79.90413 30247 ft 423 kts 277°
2026-05-04 18:02 34.26860 -79.93945 30623 ft 424 kts 277°
2026-05-04 18:02 34.27295 -79.97463 31184 ft 420 kts 277°
2026-05-04 18:02 34.27726 -80.00943 31781 ft 415 kts 277°
2026-05-04 18:03 34.28155 -80.04397 32261 ft 414 kts 277°
2026-05-04 18:03 34.28576 -80.07799 32650 ft 413 kts 277°
2026-05-04 18:03 34.29001 -80.11235 33066 ft 411 kts 277°
2026-05-04 18:03 34.29422 -80.14647 33516 ft 409 kts 277°
2026-05-04 18:04 34.29839 -80.18038 33958 ft 407 kts 277°
2026-05-04 18:04 34.30253 -80.21412 34335 ft 405 kts 276°
2026-05-04 18:04 34.31071 -80.28101 34967 ft 404 kts 276°
2026-05-04 18:05 34.31480 -80.31465 35296 ft 403 kts 276°
2026-05-04 18:05 34.31887 -80.34820 35657 ft 401 kts 276°
2026-05-04 18:05 34.32291 -80.38154 35976 ft 400 kts 276°
2026-05-04 18:05 34.32696 -80.41502 36093 ft 404 kts 276°
2026-05-04 18:06 34.33504 -80.48214 36094 ft 405 kts 276°
2026-05-04 18:06 34.34310 -80.54932 36092 ft 399 kts 276°
2026-05-04 18:07 34.35103 -80.61568 36104 ft 398 kts 276°
2026-05-04 18:07 34.35889 -80.68188 36103 ft 397 kts 276°
2026-05-04 18:08 34.36670 -80.74795 36101 ft 397 kts 276°
2026-05-04 18:08 34.37448 -80.81403 36100 ft 396 kts 277°
2026-05-04 18:09 34.38989 -80.94608 36105 ft 398 kts 277°
2026-05-04 18:10 34.39758 -81.01238 36103 ft 400 kts 277°
2026-05-04 18:10 34.40531 -81.07928 36100 ft 401 kts 277°
2026-05-04 18:11 34.41300 -81.14624 36102 ft 402 kts 277°
2026-05-04 18:11 34.42064 -81.21305 36103 ft 403 kts 277°
2026-05-04 18:12 34.42830 -81.28043 36101 ft 403 kts 277°
2026-05-04 18:12 34.43593 -81.34784 36113 ft 403 kts 277°
2026-05-04 18:13 34.44346 -81.41469 36109 ft 403 kts 277°
2026-05-04 18:14 34.45477 -81.51569 36121 ft 403 kts 276°
2026-05-04 18:14 34.46225 -81.58299 36122 ft 402 kts 276°
2026-05-04 18:15 34.47707 -81.71733 36119 ft 402 kts 276°
2026-05-04 18:16 34.48315 -81.77281 36113 ft 401 kts 276°
2026-05-04 18:16 34.49047 -81.83994 36109 ft 402 kts 276°
2026-05-04 18:17 34.50138 -81.94075 36091 ft 402 kts 276°
2026-05-04 18:18 34.51222 -82.04165 36092 ft 402 kts 276°
2026-05-04 18:18 34.51941 -82.10891 36092 ft 402 kts 276°
2026-05-04 18:19 34.52882 -82.20972 36092 ft 402 kts 274°
2026-05-04 18:19 34.53237 -82.27748 36083 ft 402 kts 273°
2026-05-04 18:20 34.53570 -82.34522 36084 ft 402 kts 273°
2026-05-04 18:20 34.53918 -82.41295 36083 ft 402 kts 273°
2026-05-04 18:21 34.54271 -82.48037 36084 ft 402 kts 273°
2026-05-04 18:21 34.54626 -82.54811 36091 ft 402 kts 273°
2026-05-04 18:22 34.54978 -82.61585 36082 ft 402 kts 273°
2026-05-04 18:22 34.55325 -82.68345 36084 ft 401 kts 273°
2026-05-04 18:23 34.55667 -82.75067 36084 ft 401 kts 273°
2026-05-04 18:23 34.56004 -82.81761 36083 ft 401 kts 273°